When you browse on this site, cookies collect data to enhance your experience and personalize the content and advertising you see.
Visit our Privacy Policy to learn more. By continuing to use the site, you agree to this use of cookies and data.
  • în România
  • Lista ţărilor
  • Pe 7 zile
  • Temperatura apei
  • Hartă satelitară
  • Meteo pe hartă
  • Widget-uri
  • user-avatar
    Intrare

    Meteo pe oră la Kostamoyarvi

    Astăzi, 18 Februarie, Luni

    Timp Temperatura Precipitaţii Vânt Presiune Umiditate
    00:00 -9°C° 0 mm 3 m/s 756 mmHg 88%
    01:00 -10°C° 0 mm 3 m/s 757 mmHg 89%
    02:00 -12°C° 0 mm 3 m/s 757 mmHg 91%
    03:00 -10°C° 0 mm 2 m/s 757 mmHg 92%
    04:00 -10°C° 0 mm 2 m/s 758 mmHg 92%
    05:00 -12°C° 0 mm 2 m/s 758 mmHg 92%
    06:00 -10°C° 0 mm 1 m/s 758 mmHg 91%
    07:00 -11°C° 0 mm 1 m/s 758 mmHg 90%
    08:00 -11°C° 0 mm 0 m/s 758 mmHg 89%
    09:00 -9°C° 0 mm 1 m/s 758 mmHg 87%
    10:00 -9°C° 0 mm 2 m/s 758 mmHg 85%
    11:00 -7°C° 0 mm 2 m/s 758 mmHg 82%
    12:00 -8°C° 0 mm 3 m/s 757 mmHg 81%
    13:00 -7°C° 0 mm 3 m/s 756 mmHg 79%
    14:00 -8°C° 0 mm 4 m/s 756 mmHg 78%
    15:00 -7°C° 0 mm 4 m/s 755 mmHg 77%
    16:00 -7°C° 0 mm 5 m/s 754 mmHg 76%
    17:00 -6°C° 0 mm 5 m/s 753 mmHg 75%
    18:00 -6°C° 0 mm 5 m/s 752 mmHg 78%
    19:00 -5°C° 0 mm 5 m/s 751 mmHg 81%
    20:00 -5°C° 0 mm 5 m/s 750 mmHg 84%
    21:00 -4°C° 0.1 mm 5 m/s 749 mmHg 85%
    22:00 -3°C° 0.1 mm 6 m/s 748 mmHg 87%
    23:00 -2°C° 0.1 mm 6 m/s 747 mmHg 88%

    Mâine, 19 Februarie, Marţi

    Timp Temperatura Precipitaţii Vânt Presiune Umiditate
    00:00 -2°C° 0.1 mm 6 m/s 746 mmHg 89%
    01:00 -1°C° 0.1 mm 6 m/s 746 mmHg 90%
    02:00 -1°C° 0.1 mm 6 m/s 745 mmHg 91%
    03:00 -1°C° 0 mm 6 m/s 745 mmHg 92%
    04:00 0°C° 0 mm 5 m/s 744 mmHg 93%
    05:00 0°C° 0 mm 5 m/s 744 mmHg 94%
    06:00 0°C° 0 mm 4 m/s 743 mmHg 94%
    07:00 0°C° 0 mm 4 m/s 743 mmHg 94%
    08:00 0°C° 0 mm 4 m/s 743 mmHg 95%
    09:00 0°C° 0.1 mm 4 m/s 742 mmHg 95%
    10:00 0°C° 0.1 mm 5 m/s 742 mmHg 95%
    11:00 0°C° 0.1 mm 5 m/s 742 mmHg 94%
    12:00 0°C° 0.2 mm 5 m/s 742 mmHg 94%
    13:00 0°C° 0.2 mm 5 m/s 741 mmHg 94%
    14:00 0°C° 0.2 mm 5 m/s 741 mmHg 94%
    15:00 0°C° 0.9 mm 4 m/s 740 mmHg 94%
    16:00 0°C° 0.9 mm 4 m/s 740 mmHg 95%
    17:00 0°C° 0.9 mm 4 m/s 739 mmHg 95%
    18:00 0°C° 0.9 mm 4 m/s 738 mmHg 95%
    19:00 +1°C° 0.9 mm 3 m/s 738 mmHg 95%
    20:00 +1°C° 0.9 mm 3 m/s 737 mmHg 96%
    21:00 0°C° 0.2 mm 3 m/s 737 mmHg 96%
    22:00 0°C° 0.2 mm 3 m/s 736 mmHg 96%
    23:00 0°C° 0.2 mm 3 m/s 736 mmHg 96%

    Poimâine, 20 Februarie, Miercuri

    Timp Temperatura Precipitaţii Vânt Presiune Umiditate
    00:00 +1°C° 0 mm 2 m/s 735 mmHg 96%
    01:00 +1°C° 0 mm 2 m/s 735 mmHg 96%
    02:00 +1°C° 0 mm 2 m/s 734 mmHg 97%
    03:00 +1°C° 0.1 mm 2 m/s 734 mmHg 96%
    04:00 +1°C° 0.1 mm 2 m/s 734 mmHg 96%
    05:00 +1°C° 0.1 mm 2 m/s 733 mmHg 96%
    06:00 -1°C° 0 mm 3 m/s 733 mmHg 96%
    07:00 -1°C° 0 mm 3 m/s 733 mmHg 96%
    08:00 -1°C° 0 mm 3 m/s 733 mmHg 96%
    09:00 -1°C° 0 mm 3 m/s 733 mmHg 95%
    10:00 0°C° 0 mm 3 m/s 733 mmHg 95%
    11:00 0°C° 0 mm 3 m/s 733 mmHg 94%
    12:00 0°C° 0.1 mm 3 m/s 733 mmHg 94%
    13:00 0°C° 0.1 mm 3 m/s 733 mmHg 93%
    14:00 0°C° 0.1 mm 3 m/s 733 mmHg 92%
    15:00 0°C° 0 mm 3 m/s 733 mmHg 92%
    16:00 0°C° 0 mm 3 m/s 733 mmHg 92%
    17:00 -1°C° 0 mm 3 m/s 734 mmHg 92%
    18:00 -2°C° 0.2 mm 4 m/s 735 mmHg 90%
    19:00 -4°C° 0.2 mm 5 m/s 735 mmHg 88%
    20:00 -4°C° 0.2 mm 6 m/s 736 mmHg 85%
    21:00 -6°C° 0.1 mm 7 m/s 737 mmHg 85%
    22:00 -7°C° 0.1 mm 7 m/s 738 mmHg 84%
    23:00 -8°C° 0.1 mm 7 m/s 739 mmHg 83%

    21 Februarie, Joi

    Timp Temperatura Precipitaţii Vânt Presiune Umiditate
    00:00 -9°C° 0.2 mm 7 m/s 740 mmHg 82%
    01:00 -11°C° 0.2 mm 8 m/s 742 mmHg 80%
    02:00 -12°C° 0.2 mm 8 m/s 743 mmHg 79%
    03:00 -12°C° 0.1 mm 8 m/s 744 mmHg 77%
    04:00 -12°C° 0.1 mm 8 m/s 745 mmHg 76%
    05:00 -12°C° 0.1 mm 8 m/s 747 mmHg 74%
    06:00 -13°C° 0 mm 7 m/s 748 mmHg 74%
    07:00 -13°C° 0 mm 7 m/s 749 mmHg 74%
    08:00 -13°C° 0 mm 7 m/s 751 mmHg 73%
    09:00 -13°C° 0 mm 7 m/s 752 mmHg 74%
    10:00 -14°C° 0 mm 6 m/s 753 mmHg 74%
    11:00 -14°C° 0 mm 6 m/s 754 mmHg 75%
    12:00 -12°C° 0 mm 6 m/s 755 mmHg 73%
    13:00 -12°C° 0 mm 5 m/s 756 mmHg 72%
    14:00 -12°C° 0 mm 5 m/s 757 mmHg 70%
    15:00 -12°C° 0 mm 5 m/s 757 mmHg 72%
    16:00 -11°C° 0 mm 4 m/s 758 mmHg 74%
    17:00 -12°C° 0 mm 4 m/s 759 mmHg 75%
    18:00 -12°C° 0 mm 4 m/s 759 mmHg 77%
    19:00 -14°C° 0 mm 4 m/s 760 mmHg 79%
    20:00 -13°C° 0 mm 3 m/s 761 mmHg 81%
    21:00 -13°C° 0 mm 3 m/s 762 mmHg 83%
    22:00 -14°C° 0 mm 3 m/s 762 mmHg 85%
    23:00 -14°C° 0 mm 3 m/s 763 mmHg 86%

    22 Februarie, Vineri

    Timp Temperatura Precipitaţii Vânt Presiune Umiditate
    00:00 -14°C° 0 mm 3 m/s 763 mmHg 87%
    01:00 -15°C° 0 mm 3 m/s 764 mmHg 88%
    02:00 -15°C° 0 mm 3 m/s 764 mmHg 89%
    03:00 -14°C° 0 mm 2 m/s 765 mmHg 89%
    04:00 -14°C° 0 mm 2 m/s 765 mmHg 88%
    05:00 -15°C° 0 mm 2 m/s 766 mmHg 88%
    06:00 -15°C° 0 mm 2 m/s 766 mmHg 87%
    07:00 -15°C° 0 mm 2 m/s 767 mmHg 87%
    08:00 -15°C° 0 mm 2 m/s 768 mmHg 86%
    09:00 -13°C° 0 mm 2 m/s 768 mmHg 82%
    10:00 -12°C° 0 mm 2 m/s 768 mmHg 79%
    11:00 -9°C° 0 mm 1 m/s 769 mmHg 75%
    12:00 -8°C° 0 mm 1 m/s 769 mmHg 74%
    13:00 -9°C° 0 mm 2 m/s 769 mmHg 73%
    14:00 -8°C° 0 mm 2 m/s 769 mmHg 72%
    15:00 -9°C° 0 mm 2 m/s 769 mmHg 76%
    16:00 -9°C° 0 mm 2 m/s 769 mmHg 79%
    17:00 -10°C° 0 mm 2 m/s 769 mmHg 83%
    18:00 -10°C° 0 mm 2 m/s 768 mmHg 81%
    19:00 -12°C° 0 mm 3 m/s 768 mmHg 80%
    20:00 -12°C° 0 mm 3 m/s 767 mmHg 79%
    21:00 -11°C° 0 mm 4 m/s 767 mmHg 80%
    22:00 -10°C° 0 mm 4 m/s 766 mmHg 81%
    23:00 -10°C° 0 mm 5 m/s 765 mmHg 83%

    23 Februarie, Sâmbătă

    Timp Temperatura Precipitaţii Vânt Presiune Umiditate
    00:00 -10°C° 0.6 mm 5 m/s 764 mmHg 85%
    01:00 -9°C° 0.6 mm 6 m/s 763 mmHg 88%
    02:00 -9°C° 0.6 mm 6 m/s 763 mmHg 91%
    03:00 -8°C° 0.5 mm 6 m/s 762 mmHg 91%
    04:00 -7°C° 0.5 mm 5 m/s 761 mmHg 90%
    05:00 -6°C° 0.5 mm 5 m/s 760 mmHg 90%
    06:00 -5°C° 0.7 mm 5 m/s 759 mmHg 91%
    07:00 -5°C° 0.7 mm 5 m/s 759 mmHg 92%
    08:00 -4°C° 0.7 mm 5 m/s 758 mmHg 93%
    09:00 -2°C° 0.1 mm 4 m/s 758 mmHg 94%
    10:00 -1°C° 0.1 mm 3 m/s 758 mmHg 94%
    11:00 0°C° 0.1 mm 3 m/s 758 mmHg 95%
    12:00 0°C° 0 mm 3 m/s 758 mmHg 96%
    13:00 0°C° 0 mm 3 m/s 757 mmHg 97%
    14:00 +2°C° 0 mm 2 m/s 757 mmHg 98%
    15:00 +1°C° 0 mm 2 m/s 757 mmHg 98%
    16:00 +1°C° 0 mm 2 m/s 757 mmHg 97%
    17:00 +1°C° 0 mm 2 m/s 757 mmHg 97%
    18:00 0°C° 0.1 mm 3 m/s 757 mmHg 97%
    19:00 0°C° 0.1 mm 3 m/s 756 mmHg 97%
    20:00 0°C° 0.1 mm 3 m/s 756 mmHg 97%
    21:00 0°C° 0.2 mm 3 m/s 755 mmHg 97%
    22:00 0°C° 0.2 mm 4 m/s 754 mmHg 96%
    23:00 0°C° 0.2 mm 4 m/s 754 mmHg 96%
    Arată mai mult